Weather History for PAAQ - March, 2014

Change the Weather History Date:

Saturday, March 15, 2014

  Actual Average Record
Temperature  
Mean Temperature 17 °F -  
Max Temperature 24 °F 34 °F 47 °F (1984)
Min Temperature 9 °F 15 °F -24 °F (1961)
Degree Days  
Heating Degree Days 48    
Moisture  
Dew Point 13 °F    
Average Humidity 79    
Maximum Humidity 93    
Minimum Humidity 51    
Precipitation  
Precipitation 0.06 in - - ()
Snow  
Snow 0.00 in - - ()
Snow Depth 4.00 in    
Sea Level Pressure  
Sea Level Pressure 29.68 in    
Wind  
Wind Speed 5 mph (WSW)    
Max Wind Speed 12 mph    
Max Gust Speed -    
Visibility 5 miles    
Events Fog    
Averages and records for this station are not official NWS values.
T = Trace of Precipitation, MM = Missing Value Source: NWS Daily Summary

Daily Weather History Graph

Daily Weather History Graph

Search for Another Location

Airport or City:

Trip Planner

Search our weather history database for the weather conditions in past years. The results will help you decide how hot, cold, wet, or windy it might be!

Date:

Astronomy

Mar. 15, 2014 Rise Set
Actual Time 8:12 AM AKDT 7:58 PM AKDT
Civil Twilight 7:29 AM AKDT 8:42 PM AKDT
Nautical Twilight 6:37 AM AKDT 9:34 PM AKDT
Astronomical Twilight 5:42 AM AKDT 10:30 PM AKDT
Moon 7:27 PM AKDT (3/15) 7:37 AM AKDT (3/15)
Length of Visible Light 13h 12m
Length of Day
11h 45m
Waxing Gibbous, 99% of the Moon is Illuminated
Mar 15
Waxing Gibbous
Mar 16
Full
Mar 23
Last Quarter
Mar 30
New
Apr 7
First Quarter

Hourly Weather History & Observations

Time (AKDT) Temp. Windchill Dew Point Humidity Pressure Visibility Wind Dir Wind Speed Gust Speed Precip Events Conditions
12:04 AM 21.2 °F 12.6 °F 17.6 °F 86% 29.50 in 3.0 mi SW 6.9 mph - N/A   Overcast
12:22 AM 21.2 °F - 17.6 °F 86% 29.51 in 2.5 mi Calm Calm - N/A   Overcast
12:45 AM 21.2 °F 11.7 °F 15.8 °F 80% 29.52 in 5.0 mi WSW 8.1 mph - N/A   Haze
12:53 AM 21.0 °F 11.4 °F 15.1 °F 78% 29.55 in 5.0 mi West 8.1 mph - N/A   Haze
1:03 AM 21.2 °F 11.7 °F 15.8 °F 80% 29.54 in 1.8 mi West 8.1 mph - N/A   Haze
1:20 AM 19.4 °F 14.3 °F 17.6 °F 93% 29.56 in 0.8 mi West 3.5 mph - N/A   Mist
1:35 AM 19.4 °F 11.5 °F 17.6 °F 93% 29.57 in 0.5 mi West 5.8 mph - 0.01 in Fog Light Freezing Fog
1:50 AM 19.4 °F 10.4 °F 15.8 °F 86% 29.59 in 1.0 mi West 6.9 mph - 0.01 in   Haze
1:53 AM 19.9 °F 12.1 °F 16.0 °F 85% 29.61 in 1.0 mi West 5.8 mph - 0.01 in   Mist
2:00 AM 19.4 °F 12.8 °F 15.8 °F 86% 29.59 in 1.0 mi West 4.6 mph - N/A   Mist
2:20 AM 19.4 °F - 15.8 °F 86% 29.61 in 0.8 mi Calm Calm - 0.01 in   Mist
2:53 AM 19.0 °F 13.9 °F 16.0 °F 88% 29.66 in 1.0 mi WSW 3.5 mph - 0.03 in   Mist
3:02 AM 19.4 °F 12.8 °F 15.8 °F 86% 29.65 in 1.2 mi West 4.6 mph - N/A   Overcast
3:25 AM 19.4 °F 10.4 °F 15.8 °F 86% 29.66 in 0.8 mi West 6.9 mph - N/A   Mist
3:35 AM 19.4 °F 12.8 °F 15.8 °F 86% 29.67 in 0.8 mi West 4.6 mph - 0.01 in   Mist
3:46 AM 19.4 °F 14.3 °F 15.8 °F 86% 29.68 in 1.0 mi West 3.5 mph - 0.01 in   Mist
3:53 AM 19.0 °F 13.9 °F 15.1 °F 85% 29.70 in 1.0 mi West 3.5 mph - 0.01 in   Mist
4:41 AM 17.6 °F 9.3 °F 14.0 °F 86% 29.71 in 1.5 mi WNW 5.8 mph - 0.01 in   Overcast
4:53 AM 18.0 °F 11.1 °F 14.0 °F 84% 29.74 in 1.8 mi WNW 4.6 mph - 0.01 in   Overcast
5:13 AM 17.6 °F 12.3 °F 14.0 °F 86% 29.73 in 2.0 mi North 3.5 mph - N/A   Overcast
5:45 AM 17.6 °F 12.3 °F 12.2 °F 79% 29.74 in 3.0 mi North 3.5 mph - N/A   Haze
5:53 AM 18.0 °F 12.7 °F 12.9 °F 81% 29.76 in 3.0 mi NNW 3.5 mph - N/A   Haze
6:21 AM 17.6 °F - 12.2 °F 79% 29.75 in 4.0 mi Calm Calm - N/A   Haze
6:53 AM 17.1 °F - 12.9 °F 84% 29.78 in 2.5 mi Calm Calm - N/A   Overcast
7:06 AM 17.6 °F - 12.2 °F 79% 29.76 in 3.0 mi Calm Calm - N/A   Overcast
7:13 AM 17.6 °F - 12.2 °F 79% 29.76 in 4.0 mi Calm Calm - N/A   Overcast
7:53 AM 16.0 °F - 12.9 °F 88% 29.78 in 5.0 mi Calm Calm - 0.00 in   Overcast
8:53 AM 14.0 °F - 12.0 °F 92% 29.79 in 10.0 mi Calm Calm - N/A   Overcast
9:53 AM 14.0 °F 8.2 °F 12.0 °F 92% 29.80 in 10.0 mi SSW 3.5 mph - N/A   Mostly Cloudy
10:53 AM 16.0 °F - 12.9 °F 88% 29.80 in 10.0 mi Calm Calm - N/A   Scattered Clouds
11:53 AM 19.9 °F - 10.0 °F 65% 29.80 in 10.0 mi Calm Calm - N/A   Mostly Cloudy
12:53 PM 24.1 °F - 9.0 °F 53% 29.78 in 10.0 mi Calm Calm - N/A   Scattered Clouds
1:53 PM 21.9 °F 15.7 °F 6.1 °F 51% 29.78 in 10.0 mi South 4.6 mph - N/A   Partly Cloudy
2:53 PM 21.9 °F 17.2 °F 7.0 °F 53% 29.76 in 10.0 mi SSE 3.5 mph - N/A   Partly Cloudy
3:53 PM 21.9 °F 10.4 °F 9.0 °F 58% 29.74 in 10.0 mi SE 11.5 mph - N/A   Clear
4:53 PM 21.9 °F 11.7 °F 9.0 °F 58% 29.72 in 10.0 mi SE 9.2 mph - N/A   Clear
5:53 PM 21.9 °F 11.0 °F 9.0 °F 58% 29.71 in 10.0 mi SE 10.4 mph - N/A   Clear
6:53 PM 19.9 °F 8.6 °F 8.1 °F 60% 29.69 in 10.0 mi SE 10.4 mph - N/A   Clear
7:53 PM 18.0 °F 9.8 °F 9.0 °F 68% 29.68 in 10.0 mi ESE 5.8 mph - N/A   Clear
8:53 PM 17.1 °F 10.0 °F 8.1 °F 68% 29.67 in 10.0 mi SE 4.6 mph - N/A   Clear
9:53 PM 16.0 °F - 8.1 °F 71% 29.66 in 10.0 mi Calm Calm - N/A   Clear
10:53 PM 10.9 °F 2.9 °F 6.1 °F 81% 29.66 in 10.0 mi North 4.6 mph - N/A   Clear
11:53 PM 9.0 °F - 5.0 °F 84% 29.67 in 10.0 mi Calm Calm - N/A   Clear